Location: Holyhead Bay
(53.3667°N, 4.6667°W)
Time: 19:55:32
(UTC+00:00)

ERS-2 - Pass Details

Date: 24 November 2020
Orbit: 492 x 497 km, 98.6° (Epoch: 17 January)

Event Time Altitude Azimuth Distance (km) Brightness Sun altitude
Exits shadow 19:05:30 34° 323° (NW) 850 3.5 -25.4°
Maximum altitude 19:06:14 38° 294° (WNW) 782 3.5 -25.5°
Drops below altitude 10° 19:09:39 10° 225° (SW) 1,703 5.4 -26.0°
Sets 19:11:48 0° 218° (SW) 2,582 6.3 -26.3°
